Szolnok, Hungary

6:37 PM CET on November 23, 2017 (GMT +0100)
Szolnok

Weather History for LHSN - September, 2013

Change the Weather History Date:

Monday, September 2, 2013

  Actual Average (LHBP) Record (LHBP)
Temperature  
Mean Temperature 60 °F -  
Max Temperature 69 °F 72 °F 87 °F (2012)
Min Temperature 51 °F 52 °F 46 °F (1998)
Degree Days  
Heating Degree Days 5    
Growing Degree Days 10 (Base 50)    
Moisture  
Dew Point 46 °F    
Average Humidity 61    
Maximum Humidity 100    
Minimum Humidity 33    
Precipitation  
Precipitation 0.00 in - - ()
Sea Level Pressure  
Sea Level Pressure 30.15 in    
Wind  
Wind Speed 6 mph ()    
Max Wind Speed 13 mph    
Max Gust Speed 25 mph    
Visibility 6.2 miles    
Events      
Averages and records for this station are not official NWS values.
T = Trace of Precipitation, MM = Missing Value Source: Averaged Metar Reports

Daily Weather History Graph

Daily Weather History Graph

Search for Another Location

Airport or City:

Trip Planner

Search our weather history database for the weather conditions in past years. The results will help you decide how hot, cold, wet, or windy it might be!

Date:

Astronomy

Sep. 02, 2013 Rise Set
Actual Time 5:59 AM CEST 7:16 PM CEST
Civil Twilight 5:27 AM CEST 7:48 PM CEST
Nautical Twilight 4:49 AM CEST 8:26 PM CEST
Astronomical Twilight 4:09 AM CEST 9:06 PM CEST
Moon 2:51 AM CEST (9/2) 5:25 PM CEST (9/2)
Length of Visible Light 14h 20m
Length of Day
13h 17m
Waning Crescent, 9% of the Moon is Illuminated
Sep 2
Waning Crescent
Sep 5
New
Sep 12
First Quarter
Sep 19
Full
Sep 27
Last Quarter

Hourly Weather History & Observations

Time (CEST) Temp. Dew Point Humidity Pressure Visibility Wind Dir Wind Speed Gust Speed Precip Events Conditions
12:15 AM 59.0 °F 53.6 °F 82% 30.15 in - East 2.2 mph - N/A   Clear
12:45 AM 57.2 °F 53.6 °F 88% 30.15 in - ESE 2.2 mph - N/A   Clear
1:15 AM 57.2 °F 53.6 °F 88% 30.15 in - Variable 2.2 mph - N/A   Clear
1:45 AM 55.4 °F 51.8 °F 88% 30.15 in - Calm Calm - N/A   Clear
2:15 AM 55.4 °F 53.6 °F 94% 30.15 in - WSW 4.5 mph - N/A   Clear
2:45 AM 55.4 °F 53.6 °F 94% 30.15 in - West 2.2 mph - N/A   Clear
3:15 AM 53.6 °F 53.6 °F 100% 30.15 in - Calm Calm - N/A   Clear
3:45 AM - - N/A% - - WNW 8.9 mph - N/A   Clear
4:15 AM 53.6 °F 50.0 °F 88% 30.15 in - West 6.7 mph - N/A   Clear
4:45 AM 53.6 °F 50.0 °F 88% 30.15 in - West 6.7 mph - N/A   Clear
5:15 AM 53.6 °F 48.2 °F 82% 30.15 in - West 6.7 mph - N/A   Clear
5:45 AM 51.8 °F 48.2 °F 88% 30.15 in - West 4.5 mph - N/A   Clear
6:15 AM 51.8 °F 48.2 °F 88% 30.15 in - WSW 4.5 mph - N/A   Clear
6:45 AM - - N/A% - - WNW 8.9 mph - N/A   Clear
7:15 AM 51.8 °F 46.4 °F 82% 30.18 in - West 4.5 mph - N/A   Clear
7:45 AM 53.6 °F 46.4 °F 77% 30.18 in - West 4.5 mph - N/A   Clear
8:15 AM 57.2 °F 46.4 °F 67% 30.18 in - WNW 8.9 mph - N/A   Clear
8:45 AM 59.0 °F 48.2 °F 67% 30.18 in - West 8.9 mph - N/A   Clear
9:15 AM 62.6 °F 46.4 °F 55% 30.18 in - WNW 11.2 mph - N/A   Clear
9:45 AM - - N/A% - - NW 11.2 mph - N/A   Clear
10:15 AM 64.4 °F 42.8 °F 45% 30.18 in - NW 11.2 mph - N/A   Clear
10:45 AM 66.2 °F 42.8 °F 43% 30.18 in - NW 11.2 mph - N/A   Clear
11:15 AM 66.2 °F 42.8 °F 43% 30.18 in - West 11.2 mph - N/A   Clear
11:45 AM 68.0 °F 42.8 °F 40% 30.18 in - WNW 11.2 mph - N/A   Clear
12:15 PM 68.0 °F 41.0 °F 37% 30.18 in - WNW 11.2 mph - N/A   Clear
12:45 PM - - N/A% - - NW 11.2 mph - N/A   Clear
1:15 PM 69.8 °F 39.2 °F 33% 30.15 in - WNW 13.4 mph - N/A   Clear
1:45 PM 69.8 °F 41.0 °F 35% 30.15 in - NW 13.4 mph - N/A   Clear
2:15 PM 68.0 °F 39.2 °F 35% 30.15 in 6.2 mi NW 13.4 mph 24.6 mph N/A   Mostly Cloudy
2:45 PM 68.0 °F 42.8 °F 40% 30.15 in 6.2 mi NW 13.4 mph - N/A   Mostly Cloudy
3:15 PM 68.0 °F 39.2 °F 35% 30.15 in 6.2 mi WNW 13.4 mph - N/A   Mostly Cloudy
3:45 PM - - N/A% - - WNW 11.2 mph - N/A   Clear
4:15 PM 69.8 °F 42.8 °F 38% 30.12 in - West 11.2 mph - N/A   Clear
4:45 PM 69.8 °F 42.8 °F 38% 30.12 in - West 11.2 mph - N/A   Clear
5:15 PM 69.8 °F 42.8 °F 38% 30.12 in - WNW 8.9 mph - N/A   Clear
5:45 PM 69.8 °F 42.8 °F 38% 30.12 in - West 11.2 mph 22.4 mph N/A   Clear
6:15 PM 68.0 °F 41.0 °F 37% 30.12 in - West 11.2 mph - N/A   Clear
6:45 PM - - N/A% - 6.2 mi West 6.7 mph - N/A   Clear
7:15 PM 64.4 °F 42.8 °F 45% 30.12 in - West 6.7 mph - N/A   Clear
7:45 PM 64.4 °F 42.8 °F 45% 30.12 in - West 6.7 mph - N/A   Clear
8:15 PM 62.6 °F 42.8 °F 48% 30.12 in - WSW 4.5 mph - N/A   Clear
8:45 PM 60.8 °F 44.6 °F 55% 30.12 in - WSW 4.5 mph - N/A   Clear
9:15 PM 59.0 °F 44.6 °F 59% 30.12 in - WSW 4.5 mph - N/A   Clear
9:45 PM - - N/A% - 6.2 mi WSW 4.5 mph - N/A   Overcast
10:15 PM 62.6 °F 46.4 °F 55% 30.12 in - West 8.9 mph - N/A   Clear
10:45 PM 60.8 °F 46.4 °F 59% 30.12 in - West 8.9 mph - N/A   Clear
11:15 PM 60.8 °F 48.2 °F 63% 30.12 in - West 11.2 mph - N/A   Clear
11:45 PM 60.8 °F 48.2 °F 63% 30.12 in - West 8.9 mph - N/A   Clear